OneWeb SL0642

operational
NORAD ID: 55806 Int'l Des: 2023-029 Owner: ONEWEBN Country: UK Constellation: oneweb
LEOCIRCULARPOLARONEWEB_TYPE

Über OneWeb SL0642

Beschreibung wird geladen...

Live-Position

3D-Globus wird geladen...

Nächste Überflüge

Höhenverlauf

Altitude vs Time

uPlot chart will show altitude changes over time

Zweizeiliger Elementsatz

1 55806U 23029L 25303.52501131 .00000015 00000-0 39426-5 0 9996
2 55806 87.9234 350.6838 0002720 107.5862 252.5568 13.19725539128618
Epoch: 30. Okt. 2025 • Age: 18 hours

Aktueller Status

Höhe 1198.2 km
Geschwindigkeit 7.25 km/s
Subsatellitenpunkt -29.43°S, 150.18°W
Startdatum 9. März 2023
Alter 2.6 years
Typ internet

Technische Details

Klassifizierung Payload
Masse 148.00 kg
Trockenmasse 140.00 kg
Gesamtmasse 148.00 kg
Länge 1.30 m
Durchmesser 1.00 m
Spannweite 5.00 m
Form Trapezoid+2 pan
Hersteller ONEWUS
Bus-Typ ARROW
Phasenstatus In Orbit
Besitzer/Staat ONEWEBN/UK

Große Konstellationen

Loading constellations...